Regional Weather Roundup
Issued by NWS

Home | Current Version | Previous Version | Text Only | Print | Product List | Glossary On
Versions: 1 2 3 4 5 6 7 8 9 10 11 12 13 14 15 16 17 18 19 20 21 22 23 24 25 26 27 28 29 30 31 32 33 34 35 36 37 38 39 40 41 42 43 44 45 46 47 48 49 50
000
ASUS43 KBIS 252020
RWRND

NORTH DAKOTA REGIONAL WEATHER ROUNDUP
NATIONAL WEATHER SERVICE BISMARCK ND
300 PM CDT SAT APR 25 2015

NOTE: "FAIR" INDICATES FEW OR NO CLOUDS BELOW 12,000 FEET WITH NO
SIGNIFICANT WEATHER AND/OR OBSTRUCTIONS TO VISIBILITY.


NDZ001>003-009>011-017-252100-
NORTHWEST NORTH DAKOTA

CITY           SKY/WX    TMP DP  RH WIND       PRES   REMARKS
WILLISTON      CLOUDY    51  42  71 SE16      29.75S
MINOT          CLOUDY    56  39  53 E16       29.80S
MINOT AFB      CLOUDY    56  43  61 SE17      29.79S
$$

NDZ018>021-031>035-040>046-252100-
SOUTHWEST NORTH DAKOTA

CITY           SKY/WX    TMP DP  RH WIND       PRES   REMARKS
BISMARCK       CLOUDY    49  42  77 SE16      29.82S
DICKINSON      CLOUDY    48  42  80 SE18      29.74R
GARRISON         N/A     56  41  57 SE16      29.79S
HETTINGER ARPT CLOUDY    45  43  93 E15       29.76R FOG
$$

NDZ004>008-012>016-024-026-027-054-252100-
NORTHEAST NORTH DAKOTA

CITY           SKY/WX    TMP DP  RH WIND       PRES   REMARKS
GRAND FORKS    MOSUNNY   62  38  40 S14       29.87F
GRND FRKS AFB  PTSUNNY   60  38  43 S8G21     29.88S
DEVILS LAKE    CLOUDY    52  37  58 SE17      29.86S
$$

NDZ022-023-025-028>030-036>039-047>053-252100-
SOUTHEAST NORTH DAKOTA

CITY           SKY/WX    TMP DP  RH WIND       PRES   REMARKS
FARGO          CLOUDY    56  39  53 SE9       29.88S
JAMESTOWN      CLOUDY    47  39  74 SE14      29.86R
$$




USA.gov is the U.S. government's official web portal to all federal, state and local government web resources and services.